This is the latest recevied weather packets stored in our database for station/object KB3GVC-13. If no packets are shown the sender has not sent any weather packets the latest 10 day(s).
| Time | Temp. | Humidity | Pressure | Rain* | Wind** | Luminosity | Snow |
|---|---|---|---|---|---|---|---|
| 1777555062 | 13.33° C | 90% | 1008.8 hPa | 0 mm | - | - | - |
| 1777554760 | 12.78° C | 92% | 1008.7 hPa | 0 mm | - | - | - |
| 1777554457 | 12.78° C | 92% | 1008.6 hPa | 0 mm | - | - | - |
| 1777554153 | 12.78° C | 93% | 1008.8 hPa | 0 mm | - | - | - |
| 1777553850 | 12.78° C | 95% | 1008.8 hPa | 0 mm | - | - | - |
| 1777553547 | 12.78° C | 95% | 1008.8 hPa | 0 mm | - | - | - |
| 1777553242 | 12.22° C | 96% | 1009.1 hPa | 0 mm | - | - | - |
| 1777552939 | 12.22° C | 97% | 1009 hPa | 0 mm | - | - | - |
| 1777552639 | 12.22° C | 97% | 1009 hPa | 0 mm | - | - | - |
| 1777552336 | 11.67° C | 97% | 1009 hPa | 0 mm | - | - | - |
| 1777552033 | 11.67° C | 98% | 1008.9 hPa | 0 mm | - | - | - |
| 1777551730 | 11.67° C | 98% | 1009 hPa | 0 mm | - | - | - |
| 1777551427 | 12.22° C | 99% | 1009 hPa | 0 mm | - | - | - |
| 1777551124 | 11.67° C | 99% | 1008.8 hPa | 0 mm | - | - | - |
| 1777550821 | 11.67° C | 99% | 1009.1 hPa | 0 mm | - | - | - |
| 1777550517 | 11.67° C | 99% | 1009.1 hPa | 0 mm | - | - | - |
| 1777550213 | 11.11° C | 99% | 1009.1 hPa | 0 mm | - | - | - |
| 1777549910 | 11.11° C | 99% | 1009.3 hPa | 0 mm | - | - | - |
| 1777549606 | 11.11° C | 99% | 1009.3 hPa | 0 mm | - | - | - |
| 1777549301 | 10.56° C | 99% | 1009.3 hPa | 0 mm | - | - | - |
| 1777548999 | 10.56° C | 99% | 1009.1 hPa | 0 mm | - | - | - |
| 1777548695 | 10.56° C | 99% | 1009.2 hPa | 0 mm | - | - | - |
| 1777548393 | 10.56° C | 99% | 1009 hPa | 0 mm | - | - | - |
| 1777548090 | 10.56° C | 99% | 1009 hPa | 0 mm | - | - | - |
| 1777547785 | 10.56° C | 99% | 1009.1 hPa | 0 mm | - | - | - |
* Rain latest hour (hover to see other rain measurements)
** Current wind speed in m/s (hover to see current wind gust speed)